Regional Weather Roundup
Issued by NWS

Home | Current Version | Previous Version | Text Only | Print | Product List | Glossary On
Versions: 1 2 3 4 5 6 7 8 9 10 11 12 13 14 15 16 17 18 19 20 21 22 23 24 25 26 27 28 29 30 31 32 33 34 35 36 37 38 39 40 41 42 43 44 45 46 47 48 49 50
000
ASUS43 KDMX 191806
RWRIA

WEATHER ROUNDUP FOR IOWA
NATIONAL WEATHER SERVICE DES MOINES IA
100 PM CDT THU APR 19 2018

NOTE: "FAIR" INDICATES FEW OR NO CLOUDS BELOW 12,000 FEET WITH NO
SIGNIFICANT WEATHER AND/OR OBSTRUCTIONS TO VISIBILITY.

* - THESE STATIONS ARE NOT NWS STATIONS...THUS NOT UNDER NWS
QUALITY CONTROL.  THEY ALSO DO NOT REPORT WEATHER SUCH
AS PRECIPITATION OR FOG.

IAZ001>003-012>014-020>022-031>034-043>046-191900-
   NORTHWEST IOWA

CITY           SKY/WX    TMP DP  RH WIND       PRES   REMARKS
CARROLL *      SUNNY     46  30  53 E9        30.48F
CHEROKEE *     SUNNY     38  24  57 E8        30.51S WCI  32
DENISON *      SUNNY     48  32  53 NE6G16    30.49S
LE MARS *      SUNNY     41  27  56 CALM      30.50F
ORANGE CITY *  SUNNY     37  27  65 CALM      30.50S
SHELDON *      SUNNY     37  27  65 E6        30.49R WCI  33
SIOUX CITY     SUNNY     48  31  51 MISG      30.49F
6HR MIN TEMP:  26; 6HR MAX TEMP:  48;

SPENCER        SUNNY     39  24  55 NE6       30.50S WCI  35
6HR MIN TEMP:  14; 6HR MAX TEMP:  40;

STORM LAKE *     N/A     34  23  64 E12       30.49S WCI  25
$$

IAZ055>058-069>071-079>083-090>094-191900-
   SOUTHWEST IOWA

CITY           SKY/WX    TMP DP  RH WIND       PRES   REMARKS
ATLANTIC *     SUNNY     50  30  46 VRB7      30.47S
AUDUBON *      SUNNY     48  30  49 NE8       30.48S
CLARINDA *     SUNNY     52  30  43 VRB7      30.49S
COUNCIL BLFS * SUNNY     50  30  46 VRB5G14   30.46F
CRESTON *      SUNNY     48  30  49 NE8G18    30.47S
HARLAN  *      SUNNY     50  32  50 E8G14     30.51S
LAMONI         SUNNY     51  30  44 NE8G16    30.45F
6HR MIN TEMP:  26; 6HR MAX TEMP:  51;

RED OAK *      SUNNY     52  32  46 VRB3G13   30.47F
SHENANDOAH *   SUNNY     52  28  40 NE12      30.47F
$$

IAZ047>049-059>061-072>074-084-191900-
   CENTRAL IOWA

CITY           SKY/WX    TMP DP  RH WIND       PRES   REMARKS
AMES             N/A     47  26  44 MISG      30.50S
6HR MIN TEMP:  29; 6HR MAX TEMP:  47;

ANKENY *       SUNNY     48  28  46 N9G15     30.50S
BOONE *        SUNNY     45  28  53 N8        30.49S
CHARITON *     SUNNY     48  30  49 N10       30.46S
DES MOINES     MOSUNNY   49  27  42 N10       30.49R
6HR MIN TEMP:  32; 6HR MAX TEMP:  50;

GRINNELL*      SUNNY     47  29  49 N12       30.48S
KNOXVILLE *    SUNNY     46  27  46 NW8G16    30.47R
MARSHALLTOWN   SUNNY     44  29  55 N8        30.48S
6HR MIN TEMP:  27; 6HR MAX TEMP:  44;

NEWTON *       SUNNY     46  30  53 N7G14     30.48S
PELLA *        SUNNY     48  29  47 NW9       30.49S
PERRY *        FAIR      46  24  41 N8        30.49F
$$

IAZ004>006-015-016-023>025-035-036-191900-
   NORTH CENTRAL IOWA

CITY           SKY/WX    TMP DP  RH WIND       PRES   REMARKS
ALGONA *       SUNNY     36  21  55 N6        30.51S WCI  31
CLARION *      SUNNY     34  25  69 NW6       30.51R WCI  29
ESTHERVILLE    SUNNY     36  23  59 N5        30.51R WCI  32
6HR MIN TEMP:  11; 6HR MAX TEMP:  36;

FORT DODGE *   SUNNY     37  23  56 NE7       30.51S WCI  32
MASON CITY     SUNNY     40  23  50 CALM      30.51R
6HR MIN TEMP:  16; 6HR MAX TEMP:  40;

FOREST CITY *  FAIR      39  21  48 N6        30.50R WCI  35
WEBSTER CITY * SUNNY     39  27  60 N7        30.49S WCI  34
IOWA FALLS *   FAIR      41  24  50 NE7       30.51S
$$

IAZ007>011-017>019-026>030-037>042-050>054-066-191900-
   NORTHEAST IOWA

CITY           SKY/WX    TMP DP  RH WIND       PRES   REMARKS
CEDAR RAPIDS   FAIR      50  25  37 N12       30.45R
6HR MIN TEMP:  30; 6HR MAX TEMP:  50;

CHARLES CITY * FAIR      37  23  56 N7        30.49S WCI  32
DECORAH *      FAIR      39  25  56 N7        30.45S WCI  34
DUBUQUE        FAIR      44  27  51 N9        30.43S
6HR MIN TEMP:  27; 6HR MAX TEMP:  44;

MONTICELLO *   FAIR      46  27  46 VRB5      30.45S
OELWEIN *      FAIR      37  28  70 N8        30.48S WCI  31
WATERLOO       FAIR      41  28  60 NW8       30.49R
6HR MIN TEMP:  22; 6HR MAX TEMP:  41;

$$

IAZ064-065-067-068-078-191900-
   EAST CENTRAL IOWA

CITY           SKY/WX    TMP DP  RH WIND       PRES   REMARKS
DAVENPORT      FAIR      49  31  49 NW7       30.45R
6HR MIN TEMP:  30; 6HR MAX TEMP:  49;

IOWA CITY      FAIR      50  22  33 N13       30.47R
6HR MIN TEMP:  33; 6HR MAX TEMP:  50;

MT. PLEASANT * SUNNY     50  28  43 N8G17     30.45S
MUSCATINE *    FAIR      52  21  30 NW9G18    30.45S
QUAD CITIES    FAIR      50  27  40 N6        30.42S
6HR MIN TEMP:  35; 6HR MAX TEMP:  51;

$$

IAZ062-063-075>077-085>089-095>099-191900-
   SOUTHEAST IOWA

CITY           SKY/WX    TMP DP  RH WIND       PRES   REMARKS
BURLINGTON     SUNNY     53  29  39 N10       30.43R
6HR MIN TEMP:  35; 6HR MAX TEMP:  53;

FAIRFIELD *    SUNNY     48  28  46 NE7G16    30.45S
FORT MADISON * SUNNY     50  32  50 N9G16     30.44S
KEOKUK *       SUNNY     50  30  46 NE7       30.43S
OSKALOOSA *    FAIR      49  29  46 N10       30.47S
CENTERVILLE *    N/A     50  30  46 NW10      30.47S
OTTUMWA        SUNNY     50  29  44 N10       30.46S
6HR MIN TEMP:  31; 6HR MAX TEMP:  51;

WASHINGTON *   SUNNY     50  28  43 NE5G13    30.46S
$$

ABBREVIATIONS USED IN REMARKS
   TC - TEMPERATURES IN CELSIUS
  WCI - WIND CHILL INDEX
   HX - HEAT INDEX
  VSB - VISIBILITY
$$




USA.gov is the U.S. government's official web portal to all federal, state and local government web resources and services.